CAPE
622 738 759 722 673 605 505 442 302 336 499 536 569 555 184 35 0 0 0 0 0 0 0 0 0 0 0 0 0 0 0 0 0 0 0 0 0 0 0 0 0 9 2
487 779 834 804 759 665 634 671 477 343 272 444 511 457 251 82 38 6 0 0 0 0 0 0 0 0 0 0 0 0 0 0 0 0 0 0 0 0 0 0 0 0 13
466 686 828 864 855 827 842 893 714 490 304 239 421 410 331 160 32 70 49 37 11 0 0 0 0 0 0 0 0 0 0 0 0 0 1 0 0 0 0 0 0 9 0
488 718 757 832 878 922 992 1078 1045 735 405 305 305 481 393 257 141 84 111 85 62 41 14 1 0 0 0 0 0 0 0 0 0 0 1 5 0 1 0 13 16 0 0
570 685 858 809 803 854 881 959 1126 1164 875 384 404 398 424 334 270 202 140 127 117 101 74 33 9 0 0 0 0 0 0 0 0 1 0 0 0 4 14 0 1 0 0
705 725 860 1035 1056 1043 1080 960 860 1133 1260 972 538 538 464 450 329 147 205 207 172 163 146 84 62 2 0 0 0 0 0 5 17 33 47 2 8 10 0 0 0 11 74
862 894 970 1076 1192 1209 1260 1242 1111 954 1106 1301 1052 755 677 657 273 134 146 365 334 237 245 222 82 139 14 77 0 0 0 0 7 94 89 1 16 2 3 1 0 0 10
1058 1041 1183 1266 1309 1374 1383 1479 1440 1300 1166 1235 1134 1127 992 894 281 98 126 514 441 351 281 218 277 208 89 80 193 62 13 4 0 16 6 55 9 1 4 25 4 0 1
1314 1313 1389 1567 1523 1500 1613 1758 1771 1705 1539 1407 1436 1206 1130 1134 326 47 28 516 461 369 281 253 280 275 179 4 119 186 87 0 0 0 0 0 0 0 0 3 3 2 0
1565 1629 1648 1707 1703 1624 1689 1816 1944 1994 1932 1731 1595 1406 1216 1289 263 5 15 546 532 495 426 378 153 290 42 0 231 216 213 37 0 0 0 0 0 0 0 0 0 0 0
1374 1700 1804 1902 1960 1910 1869 1860 1907 2046 2193 2119 2007 1826 1328 1270 782 0 0 663 635 527 517 421 308 18 0 0 36 143 135 0 0 0 0 0 0 0 0 0 0 0 0
1194 1649 1879 2052 2176 2191 2228 2166 2020 2137 2353 2367 2253 1944 1520 1427 879 1 0 474 546 636 587 220 190 0 0 0 1 0 0 0 0 0 0 0 0 0 0 0 0 0 0
897 1144 1759 2010 2215 2414 2487 2500 2469 2506 2460 2401 2343 1929 1808 1475 587 1 0 40 166 400 94 35 0 0 2 1 1 1 0 0 0 0 0 0 0 0 0 0 0 0 0
465 707 999 1423 1959 2222 2273 2410 2597 2656 2604 2535 2354 2060 1623 602 41 2 1 0 0 0 1 0 0 0 0 0 1 0 0 0 0 0 0 0 0 0 0 0 0 0 0
553 592 1019 858 24 0 0 1 149 2 708 2428 2326 1707 431 129 0 0 0 1 3 1 0 1 0 0 1 1 1 0 0 0 0 0 0 0 0 0 0 0 0 0 0
117 20 12 1 1 5 14 0 0 0 0 0 0 15 22 0 1 0 0 1 2 1 0 0 0 0 0 0 0 0 0 0 0 0 0 0 0 0 0 0 0 0 0
6 4 4 28 2 0 0 0 0 0 0 0 0 0 0 0 12 1 1 1 1 0 0 0 0 0 0 0 0 0 0 0 0 0 0 0 0 0 0 0 0 0 0
133 86 23 1 0 0 0 0 0 0 0 1 1 2 2 0 2 0 1 1 0 0 0 0 0 0 0 0 0 0 0 0 0 0 0 0 0 0 0 0 0 0 0
1 1 113 1 0 1 1 0 0 0 0 0 0 1 0 0 1 1 1 1 2 0 0 0 0 0 0 0 0 0 0 0 0 0 0 0 0 0 0 0 0 0 0
1 0 7 2 2 1 1 3 1 1 1 0 0 1 7 6 5 0 3 3 1 0 0 0 0 0 0 0 0 0 0 0 0 0 0 0 0 0 0 0 0 0 0
6 3 0 2 1 0 1 3 1 4 1 1 0 1 1 2 3 0 0 0 0 0 0 0 0 0 0 0 0 0 0 0 0 0 0 0 0 0 0 0 0 0 0
2 2 1 1 0 0 1 1 1 1 1 0 0 0 0 0 0 0 0 0 0 0 0 0 0 0 0 0 0 0 0 0 0 0 0 0 0 0 0 0 0 0 0
0 0 0 0 0 0 0 0 0 0 0 0 1 0 0 0 0 0 0 0 0 0 0 0 0 0 0 0 0 0 0 0 0 0 0 0 0 0 0 0 0 0 0
0 0 0 0 0 0 0 0 0 0 0 0 0 0 0 0 0 0 0 0 0 0 0 0 0 0 0 0 0 0 0 0 0 0 0 0 0 0 0 0 0 0 0
0 0 6 0 0 0 0 0 0 0 0 0 0 0 0 0 0 0 0 0 0 0 0 0 0 0 0 0 0 0 0 0 0 0 0 0 0 0 0 0 0 0 0
19 7 0 0 0 0 12 13 8 0 0 1 0 0 0 0 0 0 0 0 0 0 0 0 0 0 0 0 0 0 0 0 0 0 0 0 0 0 0 0 0 0 0
CIN
-575 -500 -431 -402 -368 -357 -374 -409 -433 -389 -349 -336 -311 -312 -422 -570 -0 -0 -0 -0 -0 -0 -0 -0 -0 -0 -0 -0 -0 -0 -0 -0 -0 -0 -0 -0 -0 -3 -0 -0 -0 -84 -94
-686 -566 -512 -454 -426 -414 -402 -367 -414 -445 -448 -396 -365 -372 -427 -547 -609 -596 -0 -0 -0 -0 -0 -0 -0 -0 -0 -0 -0 -0 -0 -0 -0 -0 -0 -0 -0 -0 -0 -3 -0 -0 -140
-706 -627 -551 -494 -461 -435 -413 -375 -402 -439 -486 -489 -430 -431 -453 -525 -707 -597 -596 -575 -597 -124 -0 -0 -0 -0 -0 -0 -0 -0 -0 -0 -0 -0 -110 -0 -0 -0 -0 -0 -0 -153 -0
-728 -679 -645 -594 -563 -524 -456 -392 -393 -437 -495 -529 -532 -469 -484 -526 -598 -666 -599 -582 -570 -573 -594 -230 -0 -0 -0 -0 -0 -0 -0 -0 -0 -0 -72 -198 -54 -9 -0 -263 -164 -0 -0
-756 -713 -697 -665 -602 -579 -539 -468 -418 -387 -447 -572 -533 -527 -513 -534 -547 -614 -650 -610 -592 -575 -576 -565 -557 -0 -0 -0 -0 -0 -0 -0 -0 -86 -0 -0 -0 -98 -118 -22 -40 -0 -0
-809 -819 -758 -663 -624 -589 -560 -537 -523 -453 -396 -437 -550 -527 -528 -533 -579 -736 -621 -587 -577 -560 -551 -561 -488 -555 -7 -0 -0 -0 -0 -235 -179 -193 -125 -58 -96 -143 -0 -0 -0 -104 -57
-871 -862 -819 -744 -682 -639 -580 -537 -543 -550 -464 -406 -456 -503 -524 -525 -692 -837 -766 -520 -530 -552 -527 -501 -522 -444 -519 -388 -0 -0 -0 -0 -111 -134 -97 -72 -80 -151 -75 -31 -0 -0 -82
-888 -848 -805 -764 -742 -642 -562 -535 -524 -495 -504 -467 -488 -473 -476 -505 -760 -966 -871 -477 -547 -554 -557 -556 -462 -454 -484 -426 -261 -256 -264 -84 -0 -120 -136 -104 -81 -63 -110 -86 -43 -0 -0
-798 -810 -784 -751 -725 -649 -583 -558 -511 -443 -454 -490 -454 -478 -495 -483 -820 -1142 -969 -490 -538 -587 -576 -535 -501 -447 -436 -138 -319 -192 -154 -0 -0 -0 -4 -0 -0 -0 -20 -0 -0 -0 -0
-796 -824 -799 -751 -711 -678 -664 -603 -511 -423 -385 -372 -404 -471 -505 -458 -952 -520 -981 -497 -473 -467 -464 -455 -557 -408 -543 -0 -227 -157 -97 -72 -0 -0 -0 -0 -0 -0 -0 -0 -0 -0 -0
-862 -782 -749 -721 -704 -722 -685 -564 -477 -407 -353 -332 -340 -337 -481 -475 -671 -0 -0 -421 -404 -395 -378 -402 -441 -558 -0 -0 -290 -152 -98 -0 -0 -0 -0 -0 -0 -0 -0 -0 -0 -0 -0
-832 -713 -695 -692 -675 -575 -532 -501 -473 -439 -367 -349 -289 -305 -407 -435 -513 -0 -0 -537 -444 -348 -362 -465 -509 -0 -0 -0 -0 -0 -0 -0 -0 -0 -0 -0 -0 -0 -0 -0 -0 -0 -0
-844 -810 -649 -555 -479 -405 -365 -346 -275 -247 -263 -228 -227 -269 -286 -269 -699 -0 -0 -838 -601 -389 -435 -523 -34 -0 -0 -0 -0 -0 -0 -0 -0 -0 -0 -0 -0 -0 -0 -0 -0 -0 -0
-966 -867 -814 -678 -489 -343 -270 -215 -168 -131 -93 -108 -90 -195 -200 -499 -738 -0 -0 -0 -0 -0 -0 -0 -0 -0 -0 -0 -0 -0 -0 -0 -0 -0 -0 -0 -0 -0 -0 -0 -0 -0 -0
-944 -901 -734 -738 -570 -0 -0 -0 -492 -0 -194 -104 -97 -144 -519 -685 -0 -0 -0 -2 -42 -0 -0 -0 -0 -0 -0 -0 -0 -0 -0 -0 -0 -0 -0 -0 -0 -0 -0 -0 -0 -0 -0
-1014 -1118 -1169 -0 -0 -1044 -1002 -0 -0 -0 -0 -0 -0 -109 -171 -0 -0 -0 -0 -0 -0 -0 -0 -0 -0 -0 -0 -0 -0 -0 -0 -0 -0 -0 -0 -0 -0 -0 -0 -0 -0 -0 -0
-881 -293 -352 -871 -0 -0 -0 -0 -0 -0 -0 -0 -0 -0 -0 -0 -42 -0 -0 -0 -0 -0 -0 -0 -0 -0 -0 -0 -0 -0 -0 -0 -0 -0 -0 -0 -0 -0 -0 -0 -0 -0 -0
-692 -582 -775 -0 -0 -0 -0 -0 -0 -0 -0 -0 -0 -0 -0 -0 -0 -0 -0 -0 -0 -0 -0 -0 -0 -0 -0 -0 -0 -0 -0 -0 -0 -0 -0 -0 -0 -0 -0 -0 -0 -0 -0
-0 -110 -547 -49 -0 -0 -0 -0 -0 -0 -0 -0 -0 -0 -0 -0 -0 -0 -0 -0 -0 -0 -0 -0 -0 -0 -0 -0 -0 -0 -0 -0 -0 -0 -0 -0 -0 -0 -0 -0 -0 -0 -0
-0 -0 -131 -22 -0 -0 -0 -0 -0 -0 -0 -0 -0 -0 -0 -0 -0 -0 -0 -0 -0 -0 -0 -0 -0 -0 -0 -0 -0 -0 -0 -0 -0 -0 -0 -0 -0 -0 -0 -0 -0 -0 -0
-473 -0 -0 -0 -0 -0 -0 -0 -0 -0 -0 -0 -0 -0 -0 -0 -0 -0 -0 -0 -0 -0 -0 -0 -0 -0 -0 -0 -0 -0 -0 -0 -0 -0 -0 -0 -0 -0 -0 -0 -0 -0 -0
-0 -0 -0 -0 -0 -0 -0 -0 -0 -0 -0 -0 -0 -0 -0 -0 -0 -0 -0 -0 -0 -0 -0 -0 -0 -0 -0 -0 -0 -0 -0 -0 -0 -0 -0 -0 -0 -0 -0 -0 -0 -0 -0
-0 -0 -0 -0 -0 -0 -0 -0 -0 -0 -0 -0 -0 -0 -0 -0 -0 -0 -0 -0 -0 -0 -0 -0 -0 -0 -0 -0 -0 -0 -0 -0 -0 -0 -0 -0 -0 -0 -0 -0 -0 -0 -0
-0 -0 -0 -0 -0 -0 -0 -0 -0 -0 -0 -0 -0 -0 -0 -0 -0 -0 -0 -0 -0 -0 -0 -0 -0 -0 -0 -0 -0 -0 -0 -0 -0 -0 -0 -0 -0 -0 -0 -0 -0 -0 -0
-24 -0 -215 -0 -0 -0 -0 -0 -0 -0 -0 -0 -0 -0 -0 -0 -0 -0 -0 -0 -0 -0 -0 -0 -0 -0 -0 -0 -0 -0 -0 -0 -0 -0 -0 -0 -0 -0 -0 -0 -0 -0 -0
-139 -56 -45 -93 -0 -0 -155 -107 -95 -39 -0 -0 -0 -0 -0 -0 -0 -0 -0 -0 -0 -0 -0 -0 -0 -0 -0 -0 -0 -0 -0 -0 -0 -0 -0 -0 -0 -0 -0 -0 -0 -0 -0
Wind_Speed
18 18 17 16 15 14 13 13 12 11 11 11 11 11 11 11 11 9 8 8 9 7 5 7 7 5 5 4 3 3 4 3 3 1 1 1 2 1 1 2 3 5 5
19 19 19 17 16 16 15 15 12 13 11 12 12 12 12 12 12 13 12 10 11 9 9 8 8 6 6 6 5 5 4 5 3 4 3 2 4 2 2 3 3 4 5
18 19 18 18 16 17 17 16 14 13 13 12 13 14 14 14 13 14 13 12 12 12 11 11 10 9 8 6 6 6 4 3 3 2 2 1 2 1 1 2 3 4 3
19 18 20 20 20 19 18 16 15 15 14 15 15 15 15 14 14 14 13 13 12 12 12 12 11 12 11 9 7 7 5 5 5 3 3 2 2 2 3 3 3 1 2
18 18 20 18 18 17 16 16 15 16 16 15 15 14 14 14 12 15 14 13 13 13 11 12 11 12 12 11 7 7 7 5 5 5 4 3 4 3 3 1 2 1 3
20 22 18 17 18 18 16 17 16 16 16 15 16 16 15 12 17 18 16 14 14 13 12 11 10 12 13 16 15 12 11 9 8 6 4 4 4 3 3 3 2 2 3
21 20 19 19 19 19 17 18 18 18 16 18 16 16 17 17 18 20 22 13 13 13 13 11 10 9 13 10 13 13 11 14 8 7 6 5 4 5 4 3 4 4 4
20 18 17 19 20 17 17 18 19 17 18 16 17 18 17 15 18 22 26 17 12 13 13 13 13 11 11 11 9 8 9 9 9 6 5 5 5 5 5 3 3 3 3
18 18 18 19 19 18 19 21 18 16 16 18 14 16 18 16 21 23 20 16 12 13 12 12 12 11 10 13 10 9 8 7 6 8 8 7 6 7 6 5 4 3 4
19 20 19 19 19 20 21 20 17 15 15 11 15 16 18 17 19 22 23 12 12 9 10 10 12 10 12 15 10 9 8 7 8 5 4 4 6 5 10 6 3 4 3
18 16 17 19 20 22 20 15 15 15 13 15 16 14 16 19 17 25 26 13 11 10 9 8 7 14 14 14 10 7 7 8 7 6 5 4 3 3 3 3 5 3 3
8 12 14 16 14 12 16 13 14 16 16 16 15 13 12 15 14 19 26 19 17 12 10 8 8 17 15 12 8 7 11 8 7 6 5 4 4 4 3 3 3 3 5
6 6 5 5 6 6 8 8 8 9 11 12 12 12 11 8 6 12 25 23 21 10 5 7 11 17 16 10 9 11 11 6 6 6 6 4 4 3 3 2 1 2 5
7 7 6 6 5 4 2 3 7 8 8 8 9 10 5 4 7 9 9 12 13 9 15 5 5 7 10 9 7 7 5 6 7 6 4 4 4 3 2 1 1 1 2
6 5 6 8 12 12 12 5 5 10 3 8 10 7 9 8 9 19 22 15 4 3 8 2 4 4 6 6 5 5 5 5 5 4 5 5 4 3 2 2 1 2 3
10 8 7 8 8 9 11 11 12 16 20 16 20 14 10 10 26 27 21 28 31 30 11 7 5 5 5 6 6 6 5 7 5 5 5 4 4 4 3 2 2 3 3
11 11 9 10 9 10 10 7 8 8 17 19 14 18 9 14 21 19 17 18 18 16 9 9 10 8 6 6 6 6 7 7 7 6 5 5 4 3 3 3 3 3 4
8 8 10 11 12 10 10 9 7 8 6 7 9 4 5 16 10 8 11 18 9 3 8 9 7 7 7 7 7 6 5 6 5 5 5 5 5 4 3 4 4 5 3
5 2 5 7 6 4 2 4 3 4 4 5 7 3 10 1 22 16 4 8 9 6 6 7 7 7 7 7 6 6 6 6 5 5 5 5 6 5 4 5 5 6 4
5 5 5 4 3 2 2 3 4 5 6 9 12 4 6 7 7 6 4 6 6 6 5 6 6 6 6 6 6 6 6 6 6 5 5 5 5 5 6 6 5 4 2
5 5 8 6 4 4 4 4 4 5 7 9 6 5 5 7 8 7 6 5 6 6 6 6 6 6 6 7 7 7 6 6 6 6 6 6 6 6 5 5 5 3 2
6 5 5 5 4 5 6 4 5 6 5 7 6 4 3 6 6 6 6 6 5 5 5 6 7 7 8 8 8 7 7 7 6 5 5 5 6 5 6 5 5 3 3
6 7 6 5 3 6 6 5 5 5 5 6 7 6 4 4 4 5 5 5 6 5 5 6 7 6 6 7 7 7 7 7 7 6 7 7 7 6 6 5 4 3 2
5 6 5 4 4 5 5 5 4 7 6 6 4 2 3 4 6 6 5 5 5 6 7 7 7 10 8 6 6 6 5 3 5 7 10 9 8 7 6 5 4 3 2
5 5 4 2 5 5 6 6 5 5 5 4 4 3 3 3 2 2 5 6 6 7 8 8 7 8 7 11 9 10 8 9 8 9 8 8 8 8 6 5 4 3 2
5 5 5 4 4 4 6 7 7 5 6 6 5 5 4 3 3 3 6 7 7 7 8 7 9 12 13 10 12 12 9 10 11 10 8 7 6 5 5 5 6 3 3
Wind_Direction
195 196 198 197 198 195 198 201 196 191 192 184 187 190 188 187 187 186 195 186 194 191 188 188 196 187 192 188 184 177 178 171 193 235 241 325 295 310 5 230 247 256 269
194 195 198 197 192 191 199 204 192 194 192 188 188 192 194 193 189 192 198 196 196 196 199 192 200 193 194 184 191 193 188 184 165 211 192 201 224 222 242 268 262 249 248
193 195 197 196 191 197 201 201 194 194 192 188 189 193 197 197 191 196 199 196 199 200 196 198 201 189 201 190 193 199 195 184 195 200 231 196 251 236 264 253 256 273 275
196 195 197 196 194 196 199 198 196 197 190 191 196 197 198 196 197 198 196 197 202 204 199 203 198 198 201 192 194 193 180 182 184 203 227 261 250 240 245 240 265 236 280
195 197 204 200 199 197 197 198 198 197 199 194 194 201 198 199 200 198 197 199 203 206 203 206 205 204 203 192 183 198 180 190 194 190 207 198 223 210 228 14 287 279 231
193 202 197 194 195 199 197 196 197 200 199 193 200 201 200 206 203 192 192 200 205 206 208 209 198 189 208 199 197 192 190 189 204 186 200 206 216 204 174 202 234 280 301
197 199 194 192 196 200 195 196 199 201 194 203 201 199 208 210 193 187 194 201 200 201 207 202 196 200 199 199 203 203 199 202 186 192 214 203 222 195 192 199 209 219 231
202 201 195 193 198 196 198 204 204 200 201 199 200 202 204 209 190 191 196 204 197 197 201 196 200 197 198 188 183 197 211 213 208 196 205 218 214 189 194 180 199 221 261
200 199 198 196 196 194 200 205 204 201 204 206 200 199 203 206 189 193 185 203 196 195 193 195 195 199 194 172 182 189 204 208 176 186 205 211 190 182 191 167 198 207 261
200 202 197 196 196 199 205 206 203 200 208 204 207 202 204 206 193 188 185 197 195 189 188 195 189 193 175 179 186 185 194 188 170 149 142 136 161 166 185 206 183 233 245
202 200 198 198 199 202 202 201 203 204 196 199 205 201 199 205 200 186 184 186 187 187 186 182 184 173 167 180 185 176 199 147 159 152 166 161 151 166 164 169 193 184 207
198 206 210 205 203 204 203 203 198 196 206 199 196 200 200 206 202 190 183 182 175 175 176 177 180 167 157 163 174 178 162 139 147 157 167 164 165 170 179 172 192 216 245
167 205 209 215 228 230 217 207 203 200 199 206 200 207 210 223 174 180 185 176 167 155 174 159 155 153 143 147 172 169 153 157 157 164 171 174 162 146 151 175 163 245 254
180 174 162 156 125 103 109 172 199 205 216 219 224 213 189 159 132 112 114 356 104 81 83 100 143 114 104 123 117 145 161 170 179 167 163 153 138 149 184 159 228 265 286
85 90 86 83 94 90 71 54 64 42 17 209 205 193 147 147 169 140 130 125 86 130 109 156 121 98 108 120 126 141 137 166 164 163 159 165 152 147 199 151 207 231 239
85 81 93 102 115 122 110 91 74 93 69 51 52 50 32 317 161 145 164 151 160 158 149 163 119 156 149 154 152 146 169 185 177 177 160 170 168 190 195 153 230 237 243
106 108 107 105 113 118 112 116 102 56 68 86 107 117 73 132 324 325 147 121 128 142 141 156 165 162 152 160 157 162 185 201 177 180 180 178 176 170 170 194 211 232 234
118 122 127 134 140 141 146 154 147 149 146 161 85 68 330 145 157 244 145 113 132 111 146 160 149 137 147 159 167 181 183 175 182 171 180 176 163 154 172 210 218 224 229
104 121 138 154 160 160 164 171 151 168 206 174 119 46 71 340 134 172 194 122 144 150 140 146 139 147 150 164 177 186 186 169 171 159 165 167 154 159 183 212 223 218 201
93 93 82 90 82 87 168 191 187 181 179 149 93 158 148 151 141 159 123 126 138 141 146 133 128 132 150 162 165 158 148 152 151 162 171 167 156 177 198 202 222 213 172
101 100 104 101 110 134 100 93 107 198 85 90 125 154 179 156 148 142 130 141 155 142 131 131 137 146 148 151 145 152 162 166 170 182 177 176 168 185 194 212 220 207 143
82 80 76 77 79 70 73 64 66 78 99 109 113 113 133 134 132 141 144 145 127 120 142 147 148 155 159 160 164 171 178 181 182 182 183 177 174 181 196 205 212 198 137
91 99 80 65 62 91 85 87 98 108 105 118 147 148 105 108 122 132 140 138 136 146 149 156 154 155 165 169 169 169 179 188 191 174 181 178 176 187 200 203 206 184 126
66 62 78 94 100 94 87 73 65 80 91 78 57 98 144 165 172 159 156 156 155 159 164 157 165 171 179 176 179 177 185 183 181 184 177 176 181 181 197 207 195 162 115
47 56 76 82 96 88 81 78 63 62 66 61 43 41 24 359 352 165 164 174 179 169 169 174 178 186 168 180 188 182 177 175 182 169 176 174 175 179 202 209 184 154 140
32 50 52 23 39 65 105 133 152 146 159 156 159 166 202 202 234 242 217 187 183 182 181 185 189 189 187 190 195 179 168 183 175 181 166 160 169 182 205 201 181 170 163